When you browse on this site, cookies collect data to enhance your experience and personalize the content and advertising you see.
Visit our Privacy Policy to learn more. By continuing to use the site, you agree to this use of cookies and data.
  • In Germany
  • List of Countries
  • For 7 days
  • Water Temperature
  • Weather Map
  • Weather Widgets
  • user-avatar
    Login

    Hourly Weather Asadabad

    Today, 23 September, Monday

    Time Temperature Precipitation Wind Pressure Humidity
    00:00 +22°C° 0 mm 0 mps 660 mmHg 76%
    01:00 +22°C° 0 mm 0 mps 659 mmHg 77%
    02:00 +21°C° 0 mm 0 mps 659 mmHg 78%
    03:00 +21°C° 0 mm 0 mps 660 mmHg 78%
    04:00 +21°C° 0 mm 0 mps 660 mmHg 78%
    05:00 +20°C° 0 mm 0 mps 660 mmHg 77%
    06:00 +21°C° 0 mm 0 mps 660 mmHg 73%
    07:00 +23°C° 0 mm 0 mps 661 mmHg 68%
    08:00 +24°C° 0 mm 0 mps 661 mmHg 63%
    09:00 +27°C° 0 mm 1 mps 661 mmHg 60%
    10:00 +28°C° 0 mm 1 mps 661 mmHg 57%
    11:00 +29°C° 0 mm 2 mps 661 mmHg 53%
    12:00 +29°C° 0 mm 2 mps 661 mmHg 51%
    13:00 +30°C° 0 mm 2 mps 661 mmHg 49%
    14:00 +31°C° 0 mm 2 mps 660 mmHg 46%
    15:00 +30°C° 0 mm 2 mps 660 mmHg 47%
    16:00 +30°C° 0 mm 2 mps 660 mmHg 47%
    17:00 +30°C° 0 mm 2 mps 660 mmHg 48%
    18:00 +29°C° 0 mm 2 mps 660 mmHg 54%
    19:00 +27°C° 0 mm 1 mps 660 mmHg 61%
    20:00 +24°C° 0 mm 0 mps 660 mmHg 68%
    21:00 +23°C° 0 mm 0 mps 660 mmHg 69%
    22:00 +23°C° 0 mm 0 mps 659 mmHg 71%
    23:00 +23°C° 0 mm 0 mps 659 mmHg 73%

    Tomorrow, 24 September, Tuesday

    Time Temperature Precipitation Wind Pressure Humidity
    00:00 +22°C° 0 mm 0 mps 659 mmHg 74%
    01:00 +22°C° 0 mm 0 mps 659 mmHg 75%
    02:00 +21°C° 0 mm 0 mps 659 mmHg 76%
    03:00 +21°C° 0 mm 0 mps 659 mmHg 76%
    04:00 +21°C° 0 mm 0 mps 659 mmHg 77%
    05:00 +20°C° 0 mm 0 mps 659 mmHg 78%
    06:00 +22°C° 0 mm 0 mps 660 mmHg 74%
    07:00 +25°C° 0 mm 1 mps 660 mmHg 70%
    08:00 +26°C° 0 mm 1 mps 661 mmHg 66%
    09:00 +27°C° 0 mm 1 mps 661 mmHg 62%
    10:00 +28°C° 0 mm 1 mps 661 mmHg 58%
    11:00 +29°C° 0 mm 2 mps 661 mmHg 55%
    12:00 +29°C° 0 mm 2 mps 661 mmHg 52%
    13:00 +30°C° 0 mm 2 mps 661 mmHg 50%
    14:00 +30°C° 0 mm 2 mps 660 mmHg 48%
    15:00 +30°C° 0 mm 2 mps 660 mmHg 48%
    16:00 +30°C° 0 mm 2 mps 660 mmHg 49%
    17:00 +30°C° 0 mm 2 mps 660 mmHg 49%
    18:00 +29°C° 0 mm 1 mps 660 mmHg 55%
    19:00 +27°C° 0 mm 1 mps 660 mmHg 61%
    20:00 +24°C° 0 mm 0 mps 660 mmHg 67%
    21:00 +24°C° 0 mm 0 mps 660 mmHg 69%
    22:00 +23°C° 0 mm 0 mps 660 mmHg 70%
    23:00 +23°C° 0 mm 0 mps 660 mmHg 71%

    Day after tomorrow, 25 September, Wednesday

    Time Temperature Precipitation Wind Pressure Humidity
    00:00 +23°C° 0 mm 0 mps 659 mmHg 71%
    01:00 +22°C° 0 mm 0 mps 659 mmHg 72%
    02:00 +22°C° 0 mm 0 mps 659 mmHg 72%
    03:00 +21°C° 0 mm 0 mps 659 mmHg 72%
    04:00 +21°C° 0 mm 0 mps 659 mmHg 72%
    05:00 +21°C° 0 mm 0 mps 660 mmHg 72%
    06:00 +24°C° 0 mm 1 mps 660 mmHg 69%
    07:00 +25°C° 0 mm 1 mps 661 mmHg 65%
    08:00 +26°C° 0 mm 1 mps 662 mmHg 62%
    09:00 +27°C° 0.1 mm 1 mps 662 mmHg 60%
    10:00 +28°C° 0.1 mm 2 mps 662 mmHg 57%
    11:00 +29°C° 0.1 mm 2 mps 663 mmHg 55%
    12:00 +29°C° 0.1 mm 2 mps 662 mmHg 53%
    13:00 +30°C° 0.1 mm 2 mps 662 mmHg 51%
    14:00 +30°C° 0.1 mm 2 mps 661 mmHg 49%
    15:00 +30°C° 0 mm 2 mps 661 mmHg 49%
    16:00 +30°C° 0 mm 2 mps 661 mmHg 49%
    17:00 +30°C° 0 mm 2 mps 661 mmHg 49%
    18:00 +29°C° 0 mm 1 mps 661 mmHg 55%
    19:00 +28°C° 0 mm 1 mps 661 mmHg 61%
    20:00 +24°C° 0 mm 0 mps 661 mmHg 67%
    21:00 +24°C° 0 mm 0 mps 661 mmHg 68%
    22:00 +23°C° 0 mm 0 mps 661 mmHg 69%
    23:00 +23°C° 0 mm 0 mps 661 mmHg 70%

    26 September, Thursday

    Time Temperature Precipitation Wind Pressure Humidity
    00:00 +23°C° 0 mm 0 mps 661 mmHg 70%
    01:00 +22°C° 0 mm 0 mps 661 mmHg 71%
    02:00 +24°C° 0 mm 1 mps 660 mmHg 71%
    03:00 +24°C° 0.1 mm 1 mps 661 mmHg 71%
    04:00 +23°C° 0.1 mm 1 mps 661 mmHg 72%
    05:00 +23°C° 0.1 mm 1 mps 661 mmHg 72%
    06:00 +24°C° 0 mm 1 mps 661 mmHg 68%
    07:00 +25°C° 0 mm 1 mps 662 mmHg 64%
    08:00 +24°C° 0 mm 0 mps 663 mmHg 60%
    09:00 +27°C° 0.1 mm 1 mps 663 mmHg 57%
    10:00 +28°C° 0.1 mm 1 mps 663 mmHg 54%
    11:00 +29°C° 0.1 mm 2 mps 663 mmHg 51%
    12:00 +30°C° 0 mm 2 mps 663 mmHg 48%
    13:00 +31°C° 0 mm 2 mps 662 mmHg 46%
    14:00 +31°C° 0 mm 2 mps 662 mmHg 44%
    15:00 +31°C° 0 mm 2 mps 661 mmHg 45%
    16:00 +31°C° 0 mm 2 mps 661 mmHg 46%
    17:00 +30°C° 0 mm 2 mps 661 mmHg 47%
    18:00 +29°C° 0 mm 2 mps 661 mmHg 54%
    19:00 +28°C° 0 mm 1 mps 661 mmHg 61%
    20:00 +26°C° 0 mm 1 mps 661 mmHg 67%
    21:00 +26°C° 0 mm 1 mps 661 mmHg 68%
    22:00 +26°C° 0 mm 1 mps 661 mmHg 69%
    23:00 +25°C° 0 mm 1 mps 661 mmHg 69%

    27 September, Friday

    Time Temperature Precipitation Wind Pressure Humidity
    00:00 +25°C° 0 mm 1 mps 660 mmHg 70%
    01:00 +24°C° 0 mm 1 mps 660 mmHg 71%
    02:00 +24°C° 0 mm 1 mps 660 mmHg 71%
    03:00 +24°C° 0 mm 1 mps 660 mmHg 71%
    04:00 +23°C° 0 mm 1 mps 660 mmHg 70%
    05:00 +23°C° 0 mm 1 mps 660 mmHg 70%
    06:00 +24°C° 0 mm 1 mps 661 mmHg 65%
    07:00 +23°C° 0 mm 0 mps 661 mmHg 60%
    08:00 +24°C° 0 mm 0 mps 661 mmHg 55%
    09:00 +27°C° 0 mm 1 mps 661 mmHg 54%
    10:00 +28°C° 0 mm 1 mps 661 mmHg 52%
    11:00 +29°C° 0 mm 2 mps 662 mmHg 51%
    12:00 +30°C° 0 mm 2 mps 661 mmHg 48%
    13:00 +31°C° 0 mm 2 mps 661 mmHg 45%
    14:00 +33°C° 0 mm 3 mps 660 mmHg 42%
    15:00 +31°C° 0 mm 3 mps 660 mmHg 44%
    16:00 +31°C° 0 mm 3 mps 659 mmHg 46%
    17:00 +31°C° 0 mm 3 mps 659 mmHg 48%
    18:00 +29°C° 0 mm 2 mps 659 mmHg 55%
    19:00 +28°C° 0 mm 1 mps 659 mmHg 62%
    20:00 +24°C° 0 mm 0 mps 659 mmHg 70%
    21:00 +24°C° 0.2 mm 0 mps 659 mmHg 70%
    22:00 +24°C° 0.2 mm 0 mps 659 mmHg 70%
    23:00 +25°C° 0.2 mm 1 mps 659 mmHg 70%

    28 September, Saturday

    Time Temperature Precipitation Wind Pressure Humidity
    00:00 +25°C° 0.2 mm 1 mps 659 mmHg 68%
    01:00 +24°C° 0.2 mm 1 mps 659 mmHg 66%
    02:00 +24°C° 0.2 mm 1 mps 658 mmHg 64%
    03:00 +23°C° 0.1 mm 1 mps 658 mmHg 62%
    04:00 +23°C° 0.1 mm 1 mps 658 mmHg 60%
    05:00 +23°C° 0.1 mm 1 mps 658 mmHg 57%
    06:00 +24°C° 0.1 mm 1 mps 658 mmHg 52%
    07:00 +25°C° 0.1 mm 1 mps 658 mmHg 47%
    08:00 +26°C° 0.1 mm 1 mps 659 mmHg 42%
    09:00 +27°C° 0 mm 1 mps 659 mmHg 44%
    10:00 +28°C° 0 mm 2 mps 659 mmHg 45%
    11:00 +29°C° 0 mm 2 mps 659 mmHg 46%
    12:00 +29°C° 0 mm 2 mps 659 mmHg 44%
    13:00 +30°C° 0 mm 2 mps 658 mmHg 42%
    14:00 +31°C° 0 mm 3 mps 658 mmHg 40%
    15:00 +30°C° 0 mm 3 mps 657 mmHg 43%
    16:00 +30°C° 0 mm 3 mps 657 mmHg 46%
    17:00 +30°C° 0 mm 3 mps 657 mmHg 49%
    18:00 +28°C° 0.9 mm 2 mps 657 mmHg 57%
    19:00 +27°C° 0.9 mm 1 mps 657 mmHg 66%
    20:00 +25°C° 0.9 mm 1 mps 658 mmHg 74%
    21:00 +25°C° 0.5 mm 1 mps 658 mmHg 74%
    22:00 +24°C° 0.5 mm 1 mps 658 mmHg 74%
    23:00 +24°C° 0.5 mm 1 mps 658 mmHg 74%
    Show more